2024-153E

Last updated on Sun Sep 29 2024 00:02:03 GMT+0000 (Coordinated Universal Time)

1 60749U 24153E 24272.61073808 .00025727 00000+0 15307-2 0 9991 2 60749 97.6182 29.9848 0016035 185.3620 174.7441 15.11112337 4592
UTC large
Height (km)
Speed (km/s)
/
Latitude / Longitude
Inclination (degrees)
Orbital Period (minutes)
Azimuth
Elevation
Range (km)
Doppler Factor

Next 0 passes for location: London (51.5072 / 0.1276)

Sorry there are no passes over London.